Location: Berlin
(42.3812°N, 71.6370°W)
Time: 22:55:21
(UTC+00:00)

Cosmos 2251 Rocket - Pass Details

Date: 15 November 2025
Orbit: 760 x 788 km, 74.0° (Epoch: 09 December)

Event Time Altitude Azimuth Distance (km) Brightness Sun altitude
Exits shadow 09:38:19 43° 314° (NW) 1,104 3.9 -22.0°
Maximum altitude 09:39:55 62° 254° (WSW) 884 3.5 -21.7°
Drops below altitude 10° 09:45:10 10° 175° (S) 2,340 6.1 -20.8°
Sets 09:47:34 0° 172° (S) 3,263 7.0 -20.3°
